Time,TemperatureF,DewpointF,PressureIn,WindDirection,WindDirectionDegrees,WindSpeedMPH,WindSpeedGustMPH,Humidity,HourlyPrecipIn,Conditions,Clouds,dailyrainin,SolarRadiationWatts/m^2,SoftwareType,DateUTC
2013-03-16 00:00:00,36.3,24.9,29.75,NE,35,0.0,3.0,63,0.00,,,0.00,0,HR-IXPWINDi_r2_v1.2.,2013-03-16 04:00:00,
2013-03-16 00:05:00,36.2,24.8,29.75,NE,37,0.0,3.0,63,0.00,,,0.00,0,HR-IXPWINDi_r2_v1.2.,2013-03-16 04:05:00,
2013-03-16 00:10:00,36.2,24.8,29.76,NE,37,1.0,2.0,63,0.00,,,0.00,0,HR-IXPWINDi_r2_v1.2.,2013-03-16 04:10:00,
2013-03-16 00:15:00,36.0,24.6,29.76,East,99,0.0,2.0,63,0.00,,,0.00,0,HR-IXPWINDi_r2_v1.2.,2013-03-16 04:15:00,
2013-03-16 00:20:00,36.0,24.2,29.75,East,99,0.0,2.0,62,0.00,,,0.00,0,HR-IXPWINDi_r2_v1.2.,2013-03-16 04:20:00,
2013-03-16 00:26:00,36.0,23.9,29.75,SE,128,0.0,3.0,61,0.00,,,0.00,0,HR-IXPWINDi_r2_v1.2.,2013-03-16 04:26:00,
2013-03-16 00:31:00,36.0,23.5,29.75,North,356,3.0,7.0,60,0.00,,,0.00,0,HR-IXPWINDi_r2_v1.2.,2013-03-16 04:31:00,
2013-03-16 00:36:00,36.3,22.9,29.75,SSW,210,0.0,7.0,58,0.00,,,0.00,0,HR-IXPWINDi_r2_v1.2.,2013-03-16 04:36:00,
2013-03-16 00:41:00,36.6,23.2,29.75,ESE,104,0.0,7.0,58,0.00,,,0.00,0,HR-IXPWINDi_r2_v1.2.,2013-03-16 04:41:00,
2013-03-16 00:46:00,36.6,22.8,29.75,ESE,110,0.0,7.0,57,0.00,,,0.00,0,HR-IXPWINDi_r2_v1.2.,2013-03-16 04:46:00,
2013-03-16 00:52:00,36.5,22.7,29.75,ESE,110,1.0,6.0,57,0.00,,,0.00,0,HR-IXPWINDi_r2_v1.2.,2013-03-16 04:52:00,
2013-03-16 00:57:00,36.5,22.7,29.75,SE,141,2.0,6.0,57,0.00,,,0.00,0,HR-IXPWINDi_r2_v1.2.,2013-03-16 04:57:00,
2013-03-16 01:02:00,36.3,22.9,29.75,SE,144,0.0,6.0,58,0.00,,,0.00,0,HR-IXPWINDi_r2_v1.2.,2013-03-16 05:02:00,
2013-03-16 01:07:00,36.3,22.5,29.75,SE,143,3.0,3.0,57,0.00,,,0.00,0,HR-IXPWINDi_r2_v1.2.,2013-03-16 05:07:00,
2013-03-16 01:12:00,36.3,22.1,29.75,North,4,1.0,6.0,56,0.00,,,0.00,0,HR-IXPWINDi_r2_v1.2.,2013-03-16 05:12:00,
2013-03-16 01:17:00,36.5,22.3,29.75,SE,145,1.0,6.0,56,0.00,,,0.00,0,HR-IXPWINDi_r2_v1.2.,2013-03-16 05:17:00,
2013-03-16 01:23:00,36.5,22.3,29.75,South,174,2.0,7.0,56,0.00,,,0.00,0,HR-IXPWINDi_r2_v1.2.,2013-03-16 05:23:00,
2013-03-16 01:28:00,36.5,22.3,29.75,South,169,0.0,7.0,56,0.00,,,0.00,0,HR-IXPWINDi_r2_v1.2.,2013-03-16 05:28:00,
2013-03-16 01:33:00,36.5,22.3,29.75,South,174,0.0,6.0,56,0.00,,,0.00,0,HR-IXPWINDi_r2_v1.2.,2013-03-16 05:33:00,
2013-03-16 01:39:00,36.5,22.3,29.76,South,172,0.0,3.0,56,0.00,,,0.00,0,HR-IXPWINDi_r2_v1.2.,2013-03-16 05:39:00,
2013-03-16 01:44:00,36.5,22.3,29.76,South,172,0.0,3.0,56,0.00,,,0.00,0,HR-IXPWINDi_r2_v1.2.,2013-03-16 05:44:00,
2013-03-16 01:49:00,36.3,22.1,29.76,South,172,0.0,3.0,56,0.00,,,0.00,0,HR-IXPWINDi_r2_v1.2.,2013-03-16 05:49:00,
2013-03-16 01:54:00,36.0,22.7,29.76,South,179,0.0,3.0,58,0.00,,,0.00,0,HR-IXPWINDi_r2_v1.2.,2013-03-16 05:54:00,
2013-03-16 01:59:00,35.6,22.7,29.76,NW,308,0.0,5.0,59,0.00,,,0.00,0,HR-IXPWINDi_r2_v1.2.,2013-03-16 05:59:00,
2013-03-16 02:05:00,35.3,22.4,29.76,North,359,0.0,5.0,59,0.00,,,0.00,0,HR-IXPWINDi_r2_v1.2.,2013-03-16 06:05:00,
2013-03-16 02:10:00,35.2,22.7,29.75,North,359,0.0,2.0,60,0.00,,,0.00,0,HR-IXPWINDi_r2_v1.2.,2013-03-16 06:10:00,
2013-03-16 02:15:00,34.9,22.8,29.75,North,0,0.0,1.0,61,0.00,,,0.00,0,HR-IXPWINDi_r2_v1.2.,2013-03-16 06:15:00,
2013-03-16 02:20:00,34.9,22.4,29.75,SSE,150,0.0,6.0,60,0.00,,,0.00,0,HR-IXPWINDi_r2_v1.2.,2013-03-16 06:20:00,
2013-03-16 02:25:00,34.6,22.5,29.75,SE,144,0.0,6.0,61,0.00,,,0.00,0,HR-IXPWINDi_r2_v1.2.,2013-03-16 06:25:00,
2013-03-16 02:30:00,34.6,22.5,29.75,SE,144,0.0,3.0,61,0.00,,,0.00,0,HR-IXPWINDi_r2_v1.2.,2013-03-16 06:30:00,
2013-03-16 02:35:00,34.6,22.5,29.75,SE,144,0.0,3.0,61,0.00,,,0.00,0,HR-IXPWINDi_r2_v1.2.,2013-03-16 06:35:00,
2013-03-16 02:40:00,34.4,22.3,29.76,ESE,109,1.0,6.0,61,0.00,,,0.00,0,HR-IXPWINDi_r2_v1.2.,2013-03-16 06:40:00,
2013-03-16 02:45:00,34.4,22.3,29.76,ESE,109,0.0,6.0,61,0.00,,,0.00,0,HR-IXPWINDi_r2_v1.2.,2013-03-16 06:45:00,
2013-03-16 02:51:00,34.4,22.0,29.77,ESE,121,0.0,5.0,60,0.00,,,0.00,0,HR-IXPWINDi_r2_v1.2.,2013-03-16 06:51:00,
2013-03-16 02:56:00,34.6,21.7,29.77,NE,34,0.0,5.0,59,0.00,,,0.00,0,HR-IXPWINDi_r2_v1.2.,2013-03-16 06:56:00,
2013-03-16 03:01:00,34.6,22.1,29.77,North,0,2.0,6.0,60,0.00,,,0.00,0,HR-IXPWINDi_r2_v1.2.,2013-03-16 07:01:00,
2013-03-16 03:06:00,34.4,21.6,29.77,North,359,0.0,6.0,59,0.00,,,0.00,0,HR-IXPWINDi_r2_v1.2.,2013-03-16 07:06:00,
2013-03-16 03:11:00,34.3,21.1,29.77,NE,40,1.0,3.0,58,0.00,,,0.00,0,HR-IXPWINDi_r2_v1.2.,2013-03-16 07:11:00,
2013-03-16 03:16:00,34.4,20.7,29.77,NE,54,0.0,3.0,57,0.00,,,0.00,0,HR-IXPWINDi_r2_v1.2.,2013-03-16 07:16:00,
2013-03-16 03:22:00,34.3,20.2,29.77,NE,54,0.0,3.0,56,0.00,,,0.00,0,HR-IXPWINDi_r2_v1.2.,2013-03-16 07:22:00,
2013-03-16 03:27:00,34.3,20.2,29.77,East,100,0.0,3.0,56,0.00,,,0.00,0,HR-IXPWINDi_r2_v1.2.,2013-03-16 07:27:00,
2013-03-16 03:32:00,34.1,20.1,29.77,East,100,2.0,3.0,56,0.00,,,0.00,0,HR-IXPWINDi_r2_v1.2.,2013-03-16 07:32:00,
2013-03-16 03:37:00,34.0,20.0,29.77,East,96,0.0,3.0,56,0.00,,,0.00,0,HR-IXPWINDi_r2_v1.2.,2013-03-16 07:37:00,
2013-03-16 03:42:00,33.8,19.8,29.77,East,96,0.0,3.0,56,0.00,,,0.00,0,HR-IXPWINDi_r2_v1.2.,2013-03-16 07:42:00,
2013-03-16 03:47:00,33.7,20.1,29.77,East,96,0.0,2.0,57,0.00,,,0.00,0,HR-IXPWINDi_r2_v1.2.,2013-03-16 07:47:00,
2013-03-16 03:52:00,33.7,20.1,29.77,East,96,0.0,2.0,57,0.00,,,0.00,0,HR-IXPWINDi_r2_v1.2.,2013-03-16 07:52:00,
2013-03-16 03:58:00,33.5,19.5,29.77,East,96,0.0,2.0,56,0.00,,,0.00,0,HR-IXPWINDi_r2_v1.2.,2013-03-16 07:58:00,
2013-03-16 04:03:00,33.5,19.5,29.77,East,96,0.0,2.0,56,0.00,,,0.00,0,HR-IXPWINDi_r2_v1.2.,2013-03-16 08:03:00,
2013-03-16 04:08:00,33.5,19.5,29.78,East,96,0.0,2.0,56,0.00,,,0.00,0,HR-IXPWINDi_r2_v1.2.,2013-03-16 08:08:00,
2013-03-16 04:13:00,33.4,19.4,29.78,East,96,0.0,1.0,56,0.00,,,0.00,0,HR-IXPWINDi_r2_v1.2.,2013-03-16 08:13:00,
2013-03-16 04:18:00,33.1,19.5,29.78,East,96,0.0,1.0,57,0.00,,,0.00,0,HR-IXPWINDi_r2_v1.2.,2013-03-16 08:18:00,
2013-03-16 04:24:00,32.8,19.2,29.78,East,96,0.0,1.0,57,0.00,,,0.00,0,HR-IXPWINDi_r2_v1.2.,2013-03-16 08:24:00,
2013-03-16 04:29:00,32.5,19.4,29.78,East,96,0.0,0.0,58,0.00,,,0.00,0,HR-IXPWINDi_r2_v1.2.,2013-03-16 08:29:00,
2013-03-16 04:34:00,32.2,19.5,29.78,East,96,0.0,0.0,59,0.00,,,0.00,0,HR-IXPWINDi_r2_v1.2.,2013-03-16 08:34:00,
2013-03-16 04:40:00,31.9,19.6,29.78,East,96,0.0,0.0,60,0.00,,,0.00,0,HR-IXPWINDi_r2_v1.2.,2013-03-16 08:40:00,
2013-03-16 04:45:00,31.8,19.5,29.78,East,96,0.0,0.0,60,0.00,,,0.00,0,HR-IXPWINDi_r2_v1.2.,2013-03-16 08:45:00,
2013-03-16 04:50:00,31.6,19.7,29.78,East,96,0.0,1.0,61,0.00,,,0.00,0,HR-IXPWINDi_r2_v1.2.,2013-03-16 08:50:00,
2013-03-16 04:55:00,31.3,19.8,29.79,East,96,0.0,1.0,62,0.00,,,0.00,0,HR-IXPWINDi_r2_v1.2.,2013-03-16 08:55:00,
2013-03-16 05:00:00,31.2,19.7,29.79,East,96,0.0,0.0,62,0.00,,,0.00,0,HR-IXPWINDi_r2_v1.2.,2013-03-16 09:00:00,
2013-03-16 05:05:00,31.0,19.5,29.79,East,96,0.0,0.0,62,0.00,,,0.00,0,HR-IXPWINDi_r2_v1.2.,2013-03-16 09:05:00,
2013-03-16 05:10:00,31.0,19.1,29.79,East,96,0.0,0.0,61,0.00,,,0.00,0,HR-IXPWINDi_r2_v1.2.,2013-03-16 09:10:00,
2013-03-16 05:16:00,31.2,18.9,29.79,East,96,0.0,0.0,60,0.00,,,0.00,0,HR-IXPWINDi_r2_v1.2.,2013-03-16 09:16:00,
2013-03-16 05:21:00,31.3,18.6,29.80,East,96,0.0,0.0,59,0.00,,,0.00,0,HR-IXPWINDi_r2_v1.2.,2013-03-16 09:21:00,
2013-03-16 05:26:00,31.3,18.6,29.80,East,96,0.0,0.0,59,0.00,,,0.00,0,HR-IXPWINDi_r2_v1.2.,2013-03-16 09:26:00,
2013-03-16 05:31:00,31.3,19.0,29.80,East,96,0.0,0.0,60,0.00,,,0.00,0,HR-IXPWINDi_r2_v1.2.,2013-03-16 09:31:00,
2013-03-16 05:37:00,31.2,19.7,29.80,East,96,0.0,0.0,62,0.00,,,0.00,0,HR-IXPWINDi_r2_v1.2.,2013-03-16 09:37:00,
2013-03-16 05:42:00,31.0,19.9,29.80,East,96,0.0,0.0,63,0.00,,,0.00,0,HR-IXPWINDi_r2_v1.2.,2013-03-16 09:42:00,
2013-03-16 05:47:00,30.7,20.0,29.80,East,96,0.0,0.0,64,0.00,,,0.00,0,HR-IXPWINDi_r2_v1.2.,2013-03-16 09:47:00,
2013-03-16 05:52:00,30.4,19.3,29.81,East,96,0.0,0.0,63,0.00,,,0.00,0,HR-IXPWINDi_r2_v1.2.,2013-03-16 09:52:00,
2013-03-16 05:57:00,30.3,18.9,29.81,East,96,0.0,0.0,62,0.00,,,0.00,0,HR-IXPWINDi_r2_v1.2.,2013-03-16 09:57:00,
2013-03-16 06:02:00,30.4,18.6,29.81,East,96,0.0,0.0,61,0.00,,,0.00,0,HR-IXPWINDi_r2_v1.2.,2013-03-16 10:02:00,
2013-03-16 06:08:00,30.6,19.1,29.81,East,96,0.0,0.0,62,0.00,,,0.00,0,HR-IXPWINDi_r2_v1.2.,2013-03-16 10:08:00,
2013-03-16 06:13:00,30.4,20.1,29.81,East,96,0.0,0.0,65,0.00,,,0.00,0,HR-IXPWINDi_r2_v1.2.,2013-03-16 10:13:00,
2013-03-16 06:18:00,30.0,20.0,29.81,East,96,0.0,0.0,66,0.00,,,0.00,0,HR-IXPWINDi_r2_v1.2.,2013-03-16 10:18:00,
2013-03-16 06:23:00,29.7,19.7,29.82,East,96,0.0,0.0,66,0.00,,,0.00,0,HR-IXPWINDi_r2_v1.2.,2013-03-16 10:23:00,
2013-03-16 06:28:00,29.5,20.3,29.82,East,96,0.0,0.0,68,0.00,,,0.00,0,HR-IXPWINDi_r2_v1.2.,2013-03-16 10:28:00,
2013-03-16 06:33:00,29.4,20.2,29.82,East,96,0.0,0.0,68,0.00,,,0.00,0,HR-IXPWINDi_r2_v1.2.,2013-03-16 10:33:00,
2013-03-16 06:39:00,29.4,20.2,29.83,East,96,0.0,0.0,68,0.00,,,0.00,0,HR-IXPWINDi_r2_v1.2.,2013-03-16 10:39:00,
2013-03-16 06:44:00,29.3,19.7,29.83,East,96,0.0,0.0,67,0.00,,,0.00,0,HR-IXPWINDi_r2_v1.2.,2013-03-16 10:44:00,
2013-03-16 06:49:00,29.1,19.5,29.83,East,96,0.0,0.0,67,0.00,,,0.00,0,HR-IXPWINDi_r2_v1.2.,2013-03-16 10:49:00,
2013-03-16 06:54:00,29.1,19.5,29.83,East,96,0.0,0.0,67,0.00,,,0.00,0,HR-IXPWINDi_r2_v1.2.,2013-03-16 10:54:00,
2013-03-16 06:59:00,29.1,19.9,29.83,East,96,0.0,0.0,68,0.00,,,0.00,0,HR-IXPWINDi_r2_v1.2.,2013-03-16 10:59:00,
2013-03-16 07:04:00,29.1,20.2,29.83,East,96,0.0,0.0,69,0.00,,,0.00,0,HR-IXPWINDi_r2_v1.2.,2013-03-16 11:04:00,
2013-03-16 07:10:00,29.0,20.1,29.83,East,96,0.0,0.0,69,0.00,,,0.00,0,HR-IXPWINDi_r2_v1.2.,2013-03-16 11:10:00,
2013-03-16 07:15:00,28.8,19.9,29.83,East,96,0.0,0.0,69,0.00,,,0.00,0,HR-IXPWINDi_r2_v1.2.,2013-03-16 11:15:00,
2013-03-16 07:20:00,29.0,19.8,29.83,East,96,0.0,0.0,68,0.00,,,0.00,0,HR-IXPWINDi_r2_v1.2.,2013-03-16 11:20:00,
2013-03-16 07:25:00,29.1,19.2,29.83,NNE,31,0.0,2.0,66,0.00,,,0.00,0,HR-IXPWINDi_r2_v1.2.,2013-03-16 11:25:00,
2013-03-16 07:31:00,29.4,18.7,29.83,NNE,31,1.0,2.0,64,0.00,,,0.00,5,HR-IXPWINDi_r2_v1.2.,2013-03-16 11:31:00,
2013-03-16 07:36:00,29.7,18.7,29.83,North,8,0.0,3.0,63,0.00,,,0.00,7,HR-IXPWINDi_r2_v1.2.,2013-03-16 11:36:00,
2013-03-16 07:41:00,30.0,18.6,29.83,North,7,1.0,3.0,62,0.00,,,0.00,14,HR-IXPWINDi_r2_v1.2.,2013-03-16 11:41:00,
2013-03-16 07:46:00,30.1,19.0,29.83,NNE,31,2.0,2.0,63,0.00,,,0.00,18,HR-IXPWINDi_r2_v1.2.,2013-03-16 11:46:00,
2013-03-16 07:51:00,30.3,19.2,29.84,NE,44,2.0,5.0,63,0.00,,,0.00,39,HR-IXPWINDi_r2_v1.2.,2013-03-16 11:51:00,
2013-03-16 07:56:00,30.3,19.6,29.84,NNE,21,2.0,5.0,64,0.00,,,0.00,39,HR-IXPWINDi_r2_v1.2.,2013-03-16 11:56:00,
2013-03-16 08:02:00,30.4,19.3,29.84,NNE,23,0.0,3.0,63,0.00,,,0.00,30,HR-IXPWINDi_r2_v1.2.,2013-03-16 12:02:00,
2013-03-16 08:07:00,30.4,19.0,29.85,NNE,28,2.0,3.0,62,0.00,,,0.00,39,HR-IXPWINDi_r2_v1.2.,2013-03-16 12:07:00,
2013-03-16 08:12:00,30.4,18.6,29.85,NNE,30,2.0,6.0,61,0.00,,,0.00,53,HR-IXPWINDi_r2_v1.2.,2013-03-16 12:12:00,
2013-03-16 08:17:00,30.6,19.1,29.85,NNW,342,1.0,6.0,62,0.00,,,0.00,55,HR-IXPWINDi_r2_v1.2.,2013-03-16 12:17:00,
2013-03-16 08:23:00,30.6,18.8,29.85,North,6,0.0,6.0,61,0.00,,,0.00,69,HR-IXPWINDi_r2_v1.2.,2013-03-16 12:23:00,
2013-03-16 08:28:00,30.7,18.5,29.85,North,0,1.0,4.0,60,0.00,,,0.00,72,HR-IXPWINDi_r2_v1.2.,2013-03-16 12:28:00,
2013-03-16 08:33:00,30.7,18.5,29.85,North,0,3.0,5.0,60,0.00,,,0.00,53,HR-IXPWINDi_r2_v1.2.,2013-03-16 12:33:00,
2013-03-16 08:38:00,30.6,18.0,29.85,NE,54,0.0,5.0,59,0.00,,,0.00,60,HR-IXPWINDi_r2_v1.2.,2013-03-16 12:38:00,
2013-03-16 08:43:00,30.6,18.0,29.85,NE,40,2.0,5.0,59,0.00,,,0.00,62,HR-IXPWINDi_r2_v1.2.,2013-03-16 12:43:00,
2013-03-16 08:48:00,30.6,17.6,29.85,NE,40,3.0,3.0,58,0.00,,,0.00,53,HR-IXPWINDi_r2_v1.2.,2013-03-16 12:48:00,
2013-03-16 08:53:00,30.6,17.6,29.86,North,353,0.0,4.0,58,0.00,,,0.00,67,HR-IXPWINDi_r2_v1.2.,2013-03-16 12:53:00,
2013-03-16 08:58:00,30.6,17.2,29.86,ENE,58,1.0,5.0,57,0.00,,,0.00,51,HR-IXPWINDi_r2_v1.2.,2013-03-16 12:58:00,
2013-03-16 09:03:00,30.6,17.2,29.86,NNW,347,2.0,5.0,57,0.00,,,0.00,56,HR-IXPWINDi_r2_v1.2.,2013-03-16 13:03:00,
2013-03-16 09:08:00,30.6,17.2,29.86,ENE,76,2.0,5.0,57,0.00,,,0.00,62,HR-IXPWINDi_r2_v1.2.,2013-03-16 13:08:00,
2013-03-16 09:14:00,30.6,17.2,29.86,ENE,65,1.0,4.0,57,0.00,,,0.00,72,HR-IXPWINDi_r2_v1.2.,2013-03-16 13:14:00,
2013-03-16 09:19:00,30.7,17.3,29.86,NE,56,0.0,4.0,57,0.00,,,0.00,95,HR-IXPWINDi_r2_v1.2.,2013-03-16 13:19:00,
2013-03-16 09:24:00,31.0,17.6,29.86,NE,56,1.0,3.0,57,0.00,,,0.00,121,HR-IXPWINDi_r2_v1.2.,2013-03-16 13:24:00,
2013-03-16 09:29:00,31.2,17.8,29.86,East,88,1.0,6.0,57,0.00,,,0.00,125,HR-IXPWINDi_r2_v1.2.,2013-03-16 13:29:00,
2013-03-16 09:34:00,31.0,16.7,29.86,East,80,3.0,6.0,55,0.00,,,0.00,139,HR-IXPWINDi_r2_v1.2.,2013-03-16 13:34:00,
2013-03-16 09:39:00,31.0,16.7,29.85,East,95,2.0,6.0,55,0.00,,,0.00,135,HR-IXPWINDi_r2_v1.2.,2013-03-16 13:39:00,
2013-03-16 09:45:00,31.0,16.7,29.85,NE,48,0.0,5.0,55,0.00,,,0.00,127,HR-IXPWINDi_r2_v1.2.,2013-03-16 13:45:00,
2013-03-16 09:50:00,31.3,17.0,29.85,NE,48,2.0,3.0,55,0.00,,,0.00,114,HR-IXPWINDi_r2_v1.2.,2013-03-16 13:50:00,
2013-03-16 09:55:00,31.3,16.6,29.84,ENE,65,0.0,6.0,54,0.00,,,0.00,121,HR-IXPWINDi_r2_v1.2.,2013-03-16 13:55:00,
2013-03-16 10:00:00,31.2,16.5,29.84,NE,55,1.0,6.0,54,0.00,,,0.00,128,HR-IXPWINDi_r2_v1.2.,2013-03-16 14:00:00,
2013-03-16 10:05:00,31.2,16.5,29.84,NE,55,2.0,3.0,54,0.00,,,0.00,150,HR-IXPWINDi_r2_v1.2.,2013-03-16 14:05:00,
2013-03-16 10:10:00,31.2,16.5,29.84,NE,51,0.0,6.0,54,0.00,,,0.00,146,HR-IXPWINDi_r2_v1.2.,2013-03-16 14:10:00,
2013-03-16 10:16:00,31.3,16.2,29.84,NE,54,0.0,6.0,53,0.00,,,0.00,157,HR-IXPWINDi_r2_v1.2.,2013-03-16 14:16:00,
2013-03-16 10:21:00,31.8,16.6,29.84,NNE,31,1.0,3.0,53,0.00,,,0.00,171,HR-IXPWINDi_r2_v1.2.,2013-03-16 14:21:00,
2013-03-16 10:26:00,32.1,16.9,29.84,NNW,329,3.0,5.0,53,0.00,,,0.00,144,HR-IXPWINDi_r2_v1.2.,2013-03-16 14:26:00,
2013-03-16 10:32:00,32.2,17.0,29.84,North,352,1.0,5.0,53,0.00,,,0.00,190,HR-IXPWINDi_r2_v1.2.,2013-03-16 14:32:00,
2013-03-16 10:37:00,32.5,16.8,29.84,NNW,343,1.0,4.0,52,0.00,,,0.00,130,HR-IXPWINDi_r2_v1.2.,2013-03-16 14:37:00,
2013-03-16 10:42:00,32.5,16.8,29.84,NNE,30,0.0,4.0,52,0.00,,,0.00,143,HR-IXPWINDi_r2_v1.2.,2013-03-16 14:42:00,
2013-03-16 10:47:00,32.5,16.8,29.84,NE,52,2.0,4.0,52,0.00,,,0.00,220,HR-IXPWINDi_r2_v1.2.,2013-03-16 14:47:00,
2013-03-16 10:52:00,32.7,17.0,29.83,NE,51,1.0,4.0,52,0.00,,,0.00,178,HR-IXPWINDi_r2_v1.2.,2013-03-16 14:52:00,
2013-03-16 10:57:00,32.5,16.4,29.83,NE,52,1.0,4.0,51,0.00,,,0.00,169,HR-IXPWINDi_r2_v1.2.,2013-03-16 14:57:00,
2013-03-16 11:02:00,32.8,16.7,29.83,NE,52,1.0,3.0,51,0.00,,,0.00,178,HR-IXPWINDi_r2_v1.2.,2013-03-16 15:02:00,
2013-03-16 11:08:00,32.8,16.7,29.83,NE,52,1.0,3.0,51,0.00,,,0.00,150,HR-IXPWINDi_r2_v1.2.,2013-03-16 15:08:00,
2013-03-16 11:13:00,32.9,16.8,29.83,NE,52,0.0,3.0,51,0.00,,,0.00,148,HR-IXPWINDi_r2_v1.2.,2013-03-16 15:13:00,
2013-03-16 11:18:00,33.1,16.5,29.83,NE,49,0.0,3.0,50,0.00,,,0.00,137,HR-IXPWINDi_r2_v1.2.,2013-03-16 15:18:00,
2013-03-16 11:23:00,33.4,16.8,29.83,NNW,347,1.0,3.0,50,0.00,,,0.00,183,HR-IXPWINDi_r2_v1.2.,2013-03-16 15:23:00,
2013-03-16 11:28:00,33.5,16.4,29.83,NNE,23,2.0,3.0,49,0.00,,,0.00,229,HR-IXPWINDi_r2_v1.2.,2013-03-16 15:28:00,
2013-03-16 11:33:00,33.2,16.1,29.83,NW,313,1.0,3.0,49,0.00,,,0.00,223,HR-IXPWINDi_r2_v1.2.,2013-03-16 15:33:00,
2013-03-16 11:38:00,33.5,16.9,29.83,NNW,344,0.0,3.0,50,0.00,,,0.00,202,HR-IXPWINDi_r2_v1.2.,2013-03-16 15:38:00,
2013-03-16 11:43:00,33.8,16.7,29.83,North,0,0.0,5.0,49,0.00,,,0.00,211,HR-IXPWINDi_r2_v1.2.,2013-03-16 15:43:00,
2013-03-16 11:49:00,34.0,16.4,29.83,NNW,336,1.0,5.0,48,0.00,,,0.00,232,HR-IXPWINDi_r2_v1.2.,2013-03-16 15:49:00,
2013-03-16 11:54:00,34.3,16.7,29.82,NW,306,0.0,3.0,48,0.00,,,0.00,285,HR-IXPWINDi_r2_v1.2.,2013-03-16 15:54:00,
2013-03-16 11:59:00,34.9,17.7,29.82,WNW,302,1.0,3.0,49,0.00,,,0.00,245,HR-IXPWINDi_r2_v1.2.,2013-03-16 15:59:00,
2013-03-16 12:05:00,35.3,17.1,29.82,NNW,343,2.0,3.0,47,0.00,,,0.00,285,HR-IXPWINDi_r2_v1.2.,2013-03-16 16:05:00,
2013-03-16 12:10:00,35.3,17.1,29.82,North,6,0.0,3.0,47,0.00,,,0.00,257,HR-IXPWINDi_r2_v1.2.,2013-03-16 16:10:00,
2013-03-16 12:15:00,35.8,18.0,29.82,WNW,289,2.0,2.0,48,0.00,,,0.00,223,HR-IXPWINDi_r2_v1.2.,2013-03-16 16:15:00,
2013-03-16 12:20:00,36.2,16.9,29.82,SSW,206,0.0,4.0,45,0.00,,,0.00,206,HR-IXPWINDi_r2_v1.2.,2013-03-16 16:20:00,
2013-03-16 12:25:00,36.3,17.0,29.81,SSW,206,1.0,4.0,45,0.00,,,0.00,216,HR-IXPWINDi_r2_v1.2.,2013-03-16 16:25:00,
2013-03-16 12:30:00,36.5,17.2,29.81,SSW,196,0.0,2.0,45,0.00,,,0.00,202,HR-IXPWINDi_r2_v1.2.,2013-03-16 16:30:00,
2013-03-16 12:36:00,36.9,17.6,29.81,SSW,198,0.0,2.0,45,0.00,,,0.00,181,HR-IXPWINDi_r2_v1.2.,2013-03-16 16:36:00,
2013-03-16 12:41:00,37.2,17.3,29.81,SSW,199,0.0,2.0,44,0.00,,,0.00,176,HR-IXPWINDi_r2_v1.2.,2013-03-16 16:41:00,
2013-03-16 12:46:00,37.0,17.6,29.81,SSW,200,1.0,2.0,45,0.00,,,0.00,167,HR-IXPWINDi_r2_v1.2.,2013-03-16 16:46:00,
2013-03-16 12:52:00,36.9,17.0,29.80,SSW,199,0.0,2.0,44,0.00,,,0.00,151,HR-IXPWINDi_r2_v1.2.,2013-03-16 16:52:00,
2013-03-16 12:57:00,36.8,17.5,29.80,SSW,203,0.0,2.0,45,0.00,,,0.00,144,HR-IXPWINDi_r2_v1.2.,2013-03-16 16:57:00,
2013-03-16 13:02:00,35.9,17.1,29.80,South,172,1.0,2.0,46,0.00,,,0.00,135,HR-IXPWINDi_r2_v1.2.,2013-03-16 17:02:00,
2013-03-16 13:08:00,36.2,18.4,29.81,South,171,0.0,3.0,48,0.00,,,0.00,113,HR-IXPWINDi_r2_v1.2.,2013-03-16 17:08:00,
2013-03-16 13:13:00,36.6,18.8,29.81,South,171,0.0,3.0,48,0.00,,,0.00,113,HR-IXPWINDi_r2_v1.2.,2013-03-16 17:13:00,
2013-03-16 13:19:00,35.9,18.6,29.81,SSE,164,5.0,6.0,49,0.00,,,0.00,113,HR-IXPWINDi_r2_v1.2.,2013-03-16 17:19:00,
2013-03-16 13:24:00,34.7,18.9,29.81,SSE,161,1.0,6.0,52,0.00,,,0.00,107,HR-IXPWINDi_r2_v1.2.,2013-03-16 17:24:00,
2013-03-16 13:29:00,34.1,18.8,29.81,SSE,161,2.0,5.0,53,0.00,,,0.00,79,HR-IXPWINDi_r2_v1.2.,2013-03-16 17:29:00,
2013-03-16 13:34:00,34.1,18.8,29.81,SSE,162,2.0,2.0,53,0.00,,,0.00,60,HR-IXPWINDi_r2_v1.2.,2013-03-16 17:34:00,
2013-03-16 13:39:00,34.3,19.4,29.80,SSE,162,2.0,2.0,54,0.00,,,0.00,65,HR-IXPWINDi_r2_v1.2.,2013-03-16 17:39:00,
2013-03-16 13:45:00,34.1,20.5,29.80,SSE,162,0.0,2.0,57,0.00,,,0.00,86,HR-IXPWINDi_r2_v1.2.,2013-03-16 17:45:00,
2013-03-16 13:50:00,33.4,21.0,29.80,SSE,161,2.0,3.0,60,0.00,,,0.00,102,HR-IXPWINDi_r2_v1.2.,2013-03-16 17:50:00,
2013-03-16 13:55:00,32.8,21.2,29.81,SSE,160,0.0,3.0,62,0.00,,,0.00,88,HR-IXPWINDi_r2_v1.2.,2013-03-16 17:55:00,
2013-03-16 14:00:00,32.8,21.6,29.81,SSE,161,0.0,3.0,63,0.00,,,0.00,81,HR-IXPWINDi_r2_v1.2.,2013-03-16 18:00:00,
2013-03-16 14:05:00,32.9,22.4,29.81,SSE,161,0.0,2.0,65,0.00,,,0.00,77,HR-IXPWINDi_r2_v1.2.,2013-03-16 18:05:00,
2013-03-16 14:10:00,32.8,23.4,29.82,SSE,161,0.0,2.0,68,0.00,,,0.00,62,HR-IXPWINDi_r2_v1.2.,2013-03-16 18:10:00,
2013-03-16 14:16:00,32.2,23.5,29.82,NNE,27,0.0,4.0,70,0.00,,,0.00,60,HR-IXPWINDi_r2_v1.2.,2013-03-16 18:16:00,
2013-03-16 14:21:00,31.8,23.8,29.82,NNE,27,0.0,4.0,72,0.00,,,0.00,63,HR-IXPWINDi_r2_v1.2.,2013-03-16 18:21:00,
2013-03-16 14:26:00,31.6,24.6,29.82,NNE,27,0.0,2.0,75,0.00,,,0.00,63,HR-IXPWINDi_r2_v1.2.,2013-03-16 18:26:00,
2013-03-16 14:31:00,31.3,24.6,29.82,NNE,27,0.0,1.0,76,0.00,,,0.00,65,HR-IXPWINDi_r2_v1.2.,2013-03-16 18:31:00,
2013-03-16 14:37:00,31.0,24.6,29.82,NNE,25,0.0,2.0,77,0.00,,,0.00,69,HR-IXPWINDi_r2_v1.2.,2013-03-16 18:37:00,
2013-03-16 14:42:00,30.7,25.0,29.82,NNE,25,0.0,2.0,79,0.00,,,0.00,58,HR-IXPWINDi_r2_v1.2.,2013-03-16 18:42:00,
2013-03-16 14:47:00,30.7,25.3,29.82,NW,308,0.0,2.0,80,0.00,,,0.00,65,HR-IXPWINDi_r2_v1.2.,2013-03-16 18:47:00,
2013-03-16 14:52:00,30.6,25.5,29.81,NW,308,0.0,2.0,81,0.00,,,0.00,58,HR-IXPWINDi_r2_v1.2.,2013-03-16 18:52:00,
2013-03-16 14:58:00,30.6,25.7,29.81,NW,308,0.0,2.0,82,0.00,,,0.00,63,HR-IXPWINDi_r2_v1.2.,2013-03-16 18:58:00,
2013-03-16 15:03:00,30.3,25.5,29.81,NW,308,0.0,0.0,82,0.00,,,0.00,48,HR-IXPWINDi_r2_v1.2.,2013-03-16 19:03:00,
2013-03-16 15:08:00,30.1,25.6,29.81,NW,308,0.0,0.0,83,0.00,,,0.00,49,HR-IXPWINDi_r2_v1.2.,2013-03-16 19:08:00,
2013-03-16 15:13:00,30.1,25.8,29.81,NW,308,0.0,0.0,84,0.00,,,0.00,39,HR-IXPWINDi_r2_v1.2.,2013-03-16 19:13:00,
2013-03-16 15:19:00,30.3,26.3,29.81,NW,308,0.0,0.0,85,0.00,,,0.00,35,HR-IXPWINDi_r2_v1.2.,2013-03-16 19:19:00,
2013-03-16 15:24:00,30.1,26.1,29.80,NW,308,0.0,0.0,85,0.00,,,0.00,32,HR-IXPWINDi_r2_v1.2.,2013-03-16 19:24:00,
2013-03-16 15:29:00,29.8,25.5,29.80,NW,308,0.0,0.0,84,0.00,,,0.00,32,HR-IXPWINDi_r2_v1.2.,2013-03-16 19:29:00,
2013-03-16 15:34:00,29.7,25.4,29.80,NW,308,0.0,0.0,84,0.00,,,0.00,42,HR-IXPWINDi_r2_v1.2.,2013-03-16 19:34:00,
2013-03-16 15:39:00,29.7,25.4,29.80,NW,308,0.0,1.0,84,0.00,,,0.00,83,HR-IXPWINDi_r2_v1.2.,2013-03-16 19:39:00,
2013-03-16 15:44:00,29.8,25.5,29.80,NW,308,0.0,1.0,84,0.00,,,0.00,55,HR-IXPWINDi_r2_v1.2.,2013-03-16 19:44:00,
2013-03-16 15:50:00,30.1,26.1,29.80,NW,309,0.0,2.0,85,0.00,,,0.00,67,HR-IXPWINDi_r2_v1.2.,2013-03-16 19:50:00,
2013-03-16 15:55:00,30.3,26.0,29.80,NW,309,0.0,2.0,84,0.00,,,0.00,77,HR-IXPWINDi_r2_v1.2.,2013-03-16 19:55:00,
2013-03-16 16:00:00,30.3,26.3,29.80,NW,309,0.0,2.0,85,0.00,,,0.00,72,HR-IXPWINDi_r2_v1.2.,2013-03-16 20:00:00,
2013-03-16 16:06:00,30.4,26.4,29.79,NW,309,0.0,1.0,85,0.00,,,0.00,51,HR-IXPWINDi_r2_v1.2.,2013-03-16 20:06:00,
2013-03-16 16:11:00,30.4,26.4,29.79,NW,309,0.0,1.0,85,0.00,,,0.00,48,HR-IXPWINDi_r2_v1.2.,2013-03-16 20:11:00,
2013-03-16 16:16:00,30.4,26.4,29.79,NW,309,0.0,1.0,85,0.00,,,0.00,74,HR-IXPWINDi_r2_v1.2.,2013-03-16 20:16:00,
2013-03-16 16:21:00,30.3,26.3,29.79,NW,309,0.0,1.0,85,0.00,,,0.00,58,HR-IXPWINDi_r2_v1.2.,2013-03-16 20:21:00,
2013-03-16 16:27:00,30.4,26.7,29.79,NW,309,0.0,1.0,86,0.00,,,0.00,63,HR-IXPWINDi_r2_v1.2.,2013-03-16 20:27:00,
2013-03-16 16:32:00,30.6,26.9,29.79,NW,309,0.0,0.0,86,0.00,,,0.00,55,HR-IXPWINDi_r2_v1.2.,2013-03-16 20:32:00,
2013-03-16 16:37:00,30.7,27.0,29.78,NW,309,0.0,0.0,86,0.00,,,0.00,62,HR-IXPWINDi_r2_v1.2.,2013-03-16 20:37:00,
2013-03-16 16:43:00,31.0,27.3,29.78,NW,309,1.0,2.0,86,0.00,,,0.00,65,HR-IXPWINDi_r2_v1.2.,2013-03-16 20:43:00,
2013-03-16 16:48:00,30.9,27.2,29.78,NW,309,0.0,2.0,86,0.00,,,0.00,58,HR-IXPWINDi_r2_v1.2.,2013-03-16 20:48:00,
2013-03-16 16:53:00,30.9,27.2,29.78,NW,309,0.0,2.0,86,0.00,,,0.00,70,HR-IXPWINDi_r2_v1.2.,2013-03-16 20:53:00,
2013-03-16 16:58:00,30.9,27.2,29.78,NW,309,0.0,2.0,86,0.00,,,0.00,26,HR-IXPWINDi_r2_v1.2.,2013-03-16 20:58:00,
2013-03-16 17:03:00,31.2,27.5,29.78,NW,309,0.0,0.0,86,0.00,,,0.00,21,HR-IXPWINDi_r2_v1.2.,2013-03-16 21:03:00,
2013-03-16 17:08:00,31.0,27.3,29.78,NW,309,0.0,0.0,86,0.00,,,0.00,26,HR-IXPWINDi_r2_v1.2.,2013-03-16 21:08:00,
2013-03-16 17:14:00,30.9,27.2,29.78,NW,309,0.0,0.0,86,0.00,,,0.00,28,HR-IXPWINDi_r2_v1.2.,2013-03-16 21:14:00,
2013-03-16 17:19:00,30.9,27.2,29.78,NW,309,0.0,0.0,86,0.00,,,0.00,12,HR-IXPWINDi_r2_v1.2.,2013-03-16 21:19:00,
2013-03-16 17:24:00,30.9,27.2,29.79,NW,309,0.0,0.0,86,0.00,,,0.00,16,HR-IXPWINDi_r2_v1.2.,2013-03-16 21:24:00,
2013-03-16 17:29:00,30.9,27.2,29.79,NW,309,0.0,1.0,86,0.00,,,0.00,11,HR-IXPWINDi_r2_v1.2.,2013-03-16 21:29:00,
2013-03-16 17:34:00,31.0,27.3,29.79,NW,309,0.0,1.0,86,0.00,,,0.00,16,HR-IXPWINDi_r2_v1.2.,2013-03-16 21:34:00,
2013-03-16 17:39:00,31.2,27.5,29.78,NW,309,0.0,0.0,86,0.00,,,0.00,18,HR-IXPWINDi_r2_v1.2.,2013-03-16 21:39:00,
2013-03-16 17:44:00,31.2,27.5,29.78,NW,309,0.0,0.0,86,0.00,,,0.00,14,HR-IXPWINDi_r2_v1.2.,2013-03-16 21:44:00,
2013-03-16 17:49:00,31.2,27.5,29.78,NW,309,0.0,0.0,86,0.00,,,0.00,11,HR-IXPWINDi_r2_v1.2.,2013-03-16 21:49:00,
2013-03-16 17:55:00,31.3,27.6,29.80,NW,309,0.0,0.0,86,0.00,,,0.00,7,HR-IXPWINDi_r2_v1.2.,2013-03-16 21:55:00,
2013-03-16 18:00:00,31.3,27.6,29.80,NW,309,0.0,0.0,86,0.00,,,0.00,7,HR-IXPWINDi_r2_v1.2.,2013-03-16 22:00:00,
2013-03-16 18:05:00,31.3,27.6,29.80,NW,309,0.0,0.0,86,0.00,,,0.00,7,HR-IXPWINDi_r2_v1.2.,2013-03-16 22:05:00,
2013-03-16 18:10:00,31.3,27.3,29.79,NW,309,0.0,0.0,85,0.00,,,0.00,0,HR-IXPWINDi_r2_v1.2.,2013-03-16 22:10:00,
2013-03-16 18:15:00,31.2,27.2,29.79,NW,309,0.0,0.0,85,0.00,,,0.00,0,HR-IXPWINDi_r2_v1.2.,2013-03-16 22:15:00,
2013-03-16 18:20:00,31.2,27.2,29.80,NW,309,0.0,0.0,85,0.00,,,0.00,0,HR-IXPWINDi_r2_v1.2.,2013-03-16 22:20:00,
2013-03-16 18:25:00,31.3,27.3,29.80,NW,309,0.0,0.0,85,0.00,,,0.00,0,HR-IXPWINDi_r2_v1.2.,2013-03-16 22:25:00,
2013-03-16 18:30:00,31.3,27.0,29.80,NW,309,0.0,0.0,84,0.00,,,0.00,0,HR-IXPWINDi_r2_v1.2.,2013-03-16 22:30:00,
2013-03-16 18:36:00,31.3,27.0,29.80,NW,309,0.0,0.0,84,0.00,,,0.00,0,HR-IXPWINDi_r2_v1.2.,2013-03-16 22:36:00,
2013-03-16 18:41:00,31.3,27.0,29.80,NW,309,0.0,0.0,84,0.00,,,0.00,0,HR-IXPWINDi_r2_v1.2.,2013-03-16 22:41:00,
2013-03-16 18:46:00,31.3,27.0,29.80,NW,309,0.0,0.0,84,0.00,,,0.00,0,HR-IXPWINDi_r2_v1.2.,2013-03-16 22:46:00,
2013-03-16 18:51:00,31.3,27.0,29.80,NW,309,0.0,0.0,84,0.00,,,0.00,0,HR-IXPWINDi_r2_v1.2.,2013-03-16 22:51:00,
2013-03-16 18:57:00,31.3,27.0,29.80,NW,309,0.0,0.0,84,0.00,,,0.00,0,HR-IXPWINDi_r2_v1.2.,2013-03-16 22:57:00,
2013-03-16 19:02:00,31.3,27.0,29.80,NW,309,0.0,1.0,84,0.00,,,0.00,0,HR-IXPWINDi_r2_v1.2.,2013-03-16 23:02:00,
2013-03-16 19:07:00,31.3,27.3,29.80,NNE,13,0.0,2.0,85,0.00,,,0.00,0,HR-IXPWINDi_r2_v1.2.,2013-03-16 23:07:00,
2013-03-16 19:12:00,31.2,27.2,29.80,NNE,13,0.0,2.0,85,0.00,,,0.00,0,HR-IXPWINDi_r2_v1.2.,2013-03-16 23:12:00,
2013-03-16 19:17:00,31.2,26.9,29.80,NNE,13,0.0,1.0,84,0.00,,,0.00,0,HR-IXPWINDi_r2_v1.2.,2013-03-16 23:17:00,
2013-03-16 19:22:00,31.2,27.2,29.81,NNE,13,0.0,0.0,85,0.00,,,0.00,0,HR-IXPWINDi_r2_v1.2.,2013-03-16 23:22:00,
2013-03-16 19:28:00,31.2,27.2,29.81,NNE,13,0.0,0.0,85,0.00,,,0.00,0,HR-IXPWINDi_r2_v1.2.,2013-03-16 23:28:00,
2013-03-16 19:33:00,31.3,27.3,29.81,NNE,13,0.0,0.0,85,0.00,,,0.00,0,HR-IXPWINDi_r2_v1.2.,2013-03-16 23:33:00,
2013-03-16 19:38:00,31.3,27.3,29.81,NNE,13,0.0,0.0,85,0.00,,,0.00,0,HR-IXPWINDi_r2_v1.2.,2013-03-16 23:38:00,
2013-03-16 19:43:00,31.3,27.3,29.81,NNE,13,0.0,0.0,85,0.00,,,0.00,0,HR-IXPWINDi_r2_v1.2.,2013-03-16 23:43:00,
2013-03-16 19:48:00,31.3,27.3,29.81,NNE,13,0.0,0.0,85,0.00,,,0.00,0,HR-IXPWINDi_r2_v1.2.,2013-03-16 23:48:00,
2013-03-16 19:53:00,31.3,27.3,29.82,NNE,13,0.0,0.0,85,0.00,,,0.00,0,HR-IXPWINDi_r2_v1.2.,2013-03-16 23:53:00,
2013-03-16 19:58:00,31.5,27.5,29.82,NNE,13,0.0,0.0,85,0.00,,,0.00,0,HR-IXPWINDi_r2_v1.2.,2013-03-16 23:58:00,
2013-03-16 20:03:00,31.5,27.8,29.82,NNE,13,0.0,0.0,86,0.00,,,0.00,0,HR-IXPWINDi_r2_v1.2.,2013-03-17 00:03:00,
2013-03-16 20:09:00,31.5,27.8,29.83,NNE,13,0.0,0.0,86,0.00,,,0.00,0,HR-IXPWINDi_r2_v1.2.,2013-03-17 00:09:00,
2013-03-16 20:14:00,31.5,27.8,29.83,NNE,13,0.0,0.0,86,0.00,,,0.00,0,HR-IXPWINDi_r2_v1.2.,2013-03-17 00:14:00,
2013-03-16 20:19:00,31.5,27.8,29.83,NNE,13,0.0,0.0,86,0.00,,,0.00,0,HR-IXPWINDi_r2_v1.2.,2013-03-17 00:19:00,
2013-03-16 20:25:00,31.5,27.8,29.83,NNE,13,0.0,0.0,86,0.00,,,0.00,0,HR-IXPWINDi_r2_v1.2.,2013-03-17 00:25:00,
2013-03-16 20:30:00,31.5,27.8,29.83,NNE,13,0.0,0.0,86,0.00,,,0.00,0,HR-IXPWINDi_r2_v1.2.,2013-03-17 00:30:00,
2013-03-16 20:35:00,31.5,27.8,29.83,NNE,13,0.0,0.0,86,0.00,,,0.00,0,HR-IXPWINDi_r2_v1.2.,2013-03-17 00:35:00,
2013-03-16 20:40:00,31.5,27.8,29.84,NNE,13,0.0,0.0,86,0.00,,,0.00,0,HR-IXPWINDi_r2_v1.2.,2013-03-17 00:40:00,
2013-03-16 20:45:00,31.5,27.8,29.84,NNE,13,0.0,0.0,86,0.00,,,0.00,0,HR-IXPWINDi_r2_v1.2.,2013-03-17 00:45:00,
2013-03-16 20:50:00,31.5,27.8,29.85,NNE,13,0.0,0.0,86,0.00,,,0.00,0,HR-IXPWINDi_r2_v1.2.,2013-03-17 00:50:00,
2013-03-16 20:56:00,31.6,27.9,29.85,NNE,13,0.0,0.0,86,0.00,,,0.00,0,HR-IXPWINDi_r2_v1.2.,2013-03-17 00:56:00,
2013-03-16 21:01:00,31.6,27.9,29.85,NNE,13,0.0,0.0,86,0.00,,,0.00,0,HR-IXPWINDi_r2_v1.2.,2013-03-17 01:01:00,
2013-03-16 21:06:00,31.5,27.8,29.85,NNE,13,0.0,0.0,86,0.00,,,0.00,0,HR-IXPWINDi_r2_v1.2.,2013-03-17 01:06:00,
2013-03-16 21:11:00,31.5,27.8,29.85,NNE,13,0.0,0.0,86,0.00,,,0.00,0,HR-IXPWINDi_r2_v1.2.,2013-03-17 01:11:00,
2013-03-16 21:16:00,31.5,27.8,29.85,NNE,13,0.0,0.0,86,0.00,,,0.00,0,HR-IXPWINDi_r2_v1.2.,2013-03-17 01:16:00,
2013-03-16 21:21:00,31.5,27.8,29.86,NNE,13,0.0,0.0,86,0.00,,,0.00,0,HR-IXPWINDi_r2_v1.2.,2013-03-17 01:21:00,
2013-03-16 21:26:00,31.5,27.8,29.86,NNE,13,0.0,0.0,86,0.00,,,0.00,0,HR-IXPWINDi_r2_v1.2.,2013-03-17 01:26:00,
2013-03-16 21:31:00,31.6,27.9,29.86,NNE,13,0.0,0.0,86,0.00,,,0.00,0,HR-IXPWINDi_r2_v1.2.,2013-03-17 01:31:00,
2013-03-16 21:36:00,31.6,27.9,29.86,NNE,13,0.0,0.0,86,0.00,,,0.00,0,HR-IXPWINDi_r2_v1.2.,2013-03-17 01:36:00,
2013-03-16 21:41:00,31.6,27.9,29.86,NNE,13,0.0,0.0,86,0.00,,,0.00,0,HR-IXPWINDi_r2_v1.2.,2013-03-17 01:41:00,
2013-03-16 21:47:00,31.6,27.9,29.86,NNE,13,0.0,0.0,86,0.00,,,0.00,0,HR-IXPWINDi_r2_v1.2.,2013-03-17 01:47:00,
2013-03-16 21:52:00,31.6,27.9,29.87,NNE,13,0.0,0.0,86,0.00,,,0.00,0,HR-IXPWINDi_r2_v1.2.,2013-03-17 01:52:00,
2013-03-16 21:57:00,31.6,27.9,29.87,NNE,13,0.0,0.0,86,0.00,,,0.00,0,HR-IXPWINDi_r2_v1.2.,2013-03-17 01:57:00,
2013-03-16 22:02:00,31.6,27.9,29.87,NNE,13,0.0,0.0,86,0.00,,,0.00,0,HR-IXPWINDi_r2_v1.2.,2013-03-17 02:02:00,
2013-03-16 22:07:00,31.6,27.9,29.87,NNE,13,0.0,0.0,86,0.00,,,0.00,0,HR-IXPWINDi_r2_v1.2.,2013-03-17 02:07:00,
2013-03-16 22:13:00,31.6,27.9,29.87,NNE,13,0.0,0.0,86,0.00,,,0.00,0,HR-IXPWINDi_r2_v1.2.,2013-03-17 02:13:00,
2013-03-16 22:18:00,31.6,27.9,29.87,NNE,13,0.0,0.0,86,0.00,,,0.00,0,HR-IXPWINDi_r2_v1.2.,2013-03-17 02:18:00,
2013-03-16 22:23:00,31.5,27.8,29.87,NNE,13,0.0,0.0,86,0.00,,,0.00,0,HR-IXPWINDi_r2_v1.2.,2013-03-17 02:23:00,
2013-03-16 22:29:00,31.5,27.8,29.87,NNE,13,0.0,0.0,86,0.00,,,0.00,0,HR-IXPWINDi_r2_v1.2.,2013-03-17 02:29:00,
2013-03-16 22:34:00,31.5,27.8,29.87,NNE,13,0.0,0.0,86,0.00,,,0.00,0,HR-IXPWINDi_r2_v1.2.,2013-03-17 02:34:00,
2013-03-16 22:39:00,31.6,27.9,29.88,NNE,13,0.0,0.0,86,0.00,,,0.00,0,HR-IXPWINDi_r2_v1.2.,2013-03-17 02:39:00,
2013-03-16 22:44:00,31.6,27.9,29.88,NNE,13,0.0,0.0,86,0.00,,,0.00,0,HR-IXPWINDi_r2_v1.2.,2013-03-17 02:44:00,
2013-03-16 22:49:00,31.6,27.9,29.88,NNE,13,0.0,0.0,86,0.00,,,0.00,0,HR-IXPWINDi_r2_v1.2.,2013-03-17 02:49:00,
2013-03-16 22:54:00,31.6,27.9,29.89,NNE,13,0.0,0.0,86,0.00,,,0.00,0,HR-IXPWINDi_r2_v1.2.,2013-03-17 02:54:00,
2013-03-16 22:59:00,31.6,27.9,29.89,NNE,13,0.0,0.0,86,0.00,,,0.00,0,HR-IXPWINDi_r2_v1.2.,2013-03-17 02:59:00,
2013-03-16 23:04:00,31.6,27.9,29.89,NNE,13,0.0,1.0,86,0.00,,,0.00,0,HR-IXPWINDi_r2_v1.2.,2013-03-17 03:04:00,
2013-03-16 23:09:00,31.5,27.5,29.89,NNE,13,0.0,1.0,85,0.00,,,0.00,0,HR-IXPWINDi_r2_v1.2.,2013-03-17 03:09:00,
2013-03-16 23:15:00,31.6,27.6,29.89,NNE,13,0.0,1.0,85,0.00,,,0.00,0,HR-IXPWINDi_r2_v1.2.,2013-03-17 03:15:00,
2013-03-16 23:20:00,31.5,27.5,29.89,NNE,13,0.0,0.0,85,0.00,,,0.00,0,HR-IXPWINDi_r2_v1.2.,2013-03-17 03:20:00,
2013-03-16 23:25:00,31.5,27.5,29.89,NNE,13,0.0,0.0,85,0.00,,,0.00,0,HR-IXPWINDi_r2_v1.2.,2013-03-17 03:25:00,
2013-03-16 23:30:00,31.5,27.5,29.89,NNE,13,0.0,0.0,85,0.00,,,0.00,0,HR-IXPWINDi_r2_v1.2.,2013-03-17 03:30:00,
2013-03-16 23:35:00,31.6,27.9,29.89,NNE,13,0.0,0.0,86,0.00,,,0.00,0,HR-IXPWINDi_r2_v1.2.,2013-03-17 03:35:00,
2013-03-16 23:41:00,31.6,27.6,29.89,NNE,13,0.0,0.0,85,0.00,,,0.00,0,HR-IXPWINDi_r2_v1.2.,2013-03-17 03:41:00,
2013-03-16 23:46:00,31.6,27.6,29.89,North,10,0.0,0.0,85,0.00,,,0.00,0,HR-IXPWINDi_r2_v1.2.,2013-03-17 03:46:00,
2013-03-16 23:51:00,31.6,27.6,29.90,NNE,13,0.0,0.0,85,0.00,,,0.00,0,HR-IXPWINDi_r2_v1.2.,2013-03-17 03:51:00,
2013-03-16 23:56:00,31.6,27.9,29.90,NNE,13,0.0,0.0,86,0.00,,,0.00,0,HR-IXPWINDi_r2_v1.2.,2013-03-17 03:56:00,